User: anonymous   Login
Location: Dover
(39.1580°N, 75.5250°W)
Time: 04:22:38
(UTC-04:00)
Language:

SeaSat 1 - Orbit

View from above orbital plane
View from above orbital plane
View from above satellite
View from above satellite

Ground track
Ground track

The orbit data is extracted from the following two-line orbital elements,

1 10967U 78064A   15110.02548613  .00000574  00000-0  21031-3 0  9991
2 10967 107.9966 091.2959 0002046 245.9581 114.1349 14.43354020932726
Epoch (UTC): 20 April 2015 00:36:42
Eccentricity: 0.0002046
inclination: 107.9966°
perigee height: 746 km
apogee height: 749 km
right ascension of ascending node: 91.2959°
argument of perigee: 245.9581°
revolutions per day: 14.43354020
mean anomaly at epoch: 114.1349°
orbit number at epoch: 93272

The dashed part of the orbit path shows where the satellite is in the earth's shadow,  

DLR